Location: Ladrillo (historical)
(32.8195°N, 117.2231°W)
Time: 11:39:27
(UTC+00:00)

SL-08 R/B - Pass Details

Date: 26 May 2022
Orbit: 950 x 1018 km, 82.9° (Epoch: 30 June)

Event Time Altitude Azimuth Distance (km) Brightness Sun altitude
Rises 11:58:31 0° 351° (N) 3,644 7.8 -9.1°
Reaches altitude 10° 12:01:00 10° 350° (N) 2,701 7.1 -8.7°
Maximum altitude 12:07:10 76° 266° (W) 1,004 4.5 -7.6°
Drops below altitude 10° 12:13:24 10° 182° (S) 2,731 6.5 -6.4°
Sets 12:15:56 0° 181° (S) 3,686 7.2 -6.0°
